Flag for U.S.A. Weather past 2 weeks in Owensboro, Kentucky, U.S.A.

Now
45 °F

Clear.


Feels Like: 45 °F
Forecast: 45 / 74 °F
Wind: No wind

Location: Owensboro / Daviess

Current Time: May 22, 2015 at 5:16:13 AM

Latest Report: May 22, 2015 at 4:56 AM


Visibility: 10 mi

Pressure: 30.23 "Hg

Humidity: 96%

Dew point: 44 °F

Location of OwensboroLocation

Historic Weather in Owensboro — Graph

°F

Owensboro temperature yesterday

Maximum temperature yesterday: 59 °F (at 5:56 PM)
Minimum temperature yesterday: 47 °F (at 11:56 PM)
Average temperature yesterday: 53 °F

Past Weeks' High & Low Weather Summary

 TemperatureHumidityPressure
High88 °F (May 8, 3:56 PM)100% (May 17, 11:56 PM)30.39 "Hg (May 17, 11:56 PM)
Low45 °F (May 22, 1:56 AM)32% (May 7, 1:56 PM)29.94 "Hg (May 11, 3:56 PM)
Average69 °F72%30.10 "Hg
* Reported May 7 3:56 AM — May 22 3:56 AM, Owensboro, Weather by CustomWeather, © 2015

Note: Actual official high and low records may vary slightly from our data, if they occured in-between our weather recording intervals... More about our weather records

Advertising

Owensboro weather history for previous 24 hours

 ConditionsComfort  
Time TempWeatherWind HumidityBarometerVisibility
3:56 AM
Fri, May 22
45 °FClear.No wind96%30.21 "Hg9 mi
2:56 AM45 °FClear.5 mph96%30.20 "Hg10 mi
1:56 AM45 °FClear.No wind96%30.20 "Hg10 mi
12:56 AM46 °FClear.No wind97%30.19 "Hg10 mi
11:56 PM
Thu, May 21
47 °FClear.No wind96%30.20 "Hg10 mi
10:56 PM49 °FClear.No wind89%30.21 "Hg10 mi
9:56 PM50 °FClear.No wind86%30.20 "Hg10 mi
8:56 PM53 °FClear.No wind75%30.19 "Hg10 mi
7:56 PM56 °FClear.5 mph67%30.17 "Hg10 mi
6:56 PM59 °FPassing clouds.10 mph57%30.15 "Hg10 mi
5:56 PM59 °FPartly sunny.10 mph60%30.15 "Hg10 mi
4:56 PM58 °FPartly sunny.10 mph62%30.16 "Hg10 mi
3:56 PM58 °FMore clouds than sun.15 mph62%30.16 "Hg10 mi
2:56 PM57 °FOvercast.10 mph65%30.17 "Hg10 mi
1:56 PM57 °FMostly cloudy.14 mph67%30.16 "Hg10 mi
12:56 PM54 °FMostly cloudy.9 mph74%30.16 "Hg10 mi
11:56 AM54 °FMostly cloudy.9 mph72%30.15 "Hg10 mi
10:56 AM54 °FOvercast.12 mph74%30.14 "Hg8 mi
9:56 AM52 °FOvercast.12 mph77%30.13 "Hg8 mi
8:56 AM52 °FOvercast.12 mph80%30.13 "Hg7 mi
7:56 AM51 °FFog.14 mph83%30.12 "Hg6 mi
6:56 AM50 °FFog.13 mph89%30.11 "Hg4 mi
5:56 AM50 °FLight rain. Fog.9 mph92%30.09 "Hg2 mi
Weather by CustomWeather, © 2015

See weather overviewHow to use our weather pages